STARLINK-1985 (47631 NORAD) Tracking and Keplerian Element Data

This shows tracking and keplerian element data for the satellite.

Feedback or suggestion? Click here.




ElementValue
Catalog47631
NameSTARLINK-1985
Epoch Orbit177
Epoch Day101.91668981
Epoch Year2021
RAAN188.9307
Inclination53.0473
Eccentricity0.0001875
Argument of Perigee28.7992
Mean Anonmoly41.9817
Mean Motion15.73214009
Decay Rate-8.002E-05
L11 47631U 21012M 21101.91668981 -.00008002 00000-0 -52592-4 0 9999
L22 47631 53.0473 188.9307 0001875 28.7992 41.9817 15.73214009 1776

Live tracking and technical data element details for STARLINK-1985 (NORAD 47631). STARLINK-1985 can be tracked NOW for your location showing map with azimuth and elevation plus other details from your city location.

Track the satellite on the map from your city or location and see movement details for azimuth, elevation, latitude, longitude, range, height, and movement on the map or in text.







IsCatalogInMostPopularTable: catalog: 47631, numindb: 15
Update: records affected: 1



GetName: 47631 STARLINK-1985

Hit Count: updated at: Tue, 13 Apr 2021 04:19:39 GMT